Regional Weather Roundup
Issued by NWS Albany, NY

Home | Current Version | Previous Version | Text Only | Print | Product List | Glossary On
Versions: 1 2 3 4 5 6 7 8 9 10 11 12 13 14 15 16 17 18 19 20 21 22 23 24 25 26 27 28 29 30 31 32 33 34 35 36 37 38 39 40 41 42 43 44 45 46 47 48 49 50
431
ASUS41 KALY 231110
RWRALY

NEW YORK STATE HOURLY WEATHER ROUNDUP
NATIONAL WEATHER SERVICE ALBANY NY
700 AM EDT WED AUG 23 2017

NOTE: "FAIR" INDICATES FEW OR NO CLOUDS BELOW 12,000 FEET WITH NO
SIGNIFICANT WEATHER AND/OR NO OBSTRUCTIONS TO VISIBILITY.

NYZ032-033-038>043-046>054-057>066-NYZ062>081-082-084-231200-
EAST


CITY           SKY/WX    TMP DP  RH WIND       PRES   REMARKS
ALBANY         MOCLDY    65  55  70 W9        29.81R
GLENS FALLS    CLOUDY    62  54  74 CALM      29.77R
POUGHKEEPSIE   PTCLDY    70  68  93 E5        29.77R
NEWBURGH       PTCLDY    68  66  94 W12       29.80R
MONTGOMERY     MOCLDY    68  63  84 W6        29.80R
WHITE PLAINS   CLOUDY    73  69  87 W8        29.78R
ISLIP          MOCLDY    73  73 100 W7        29.76R
NEW YORK CITY  MOCLDY    76  71  85 W9        29.77R
CENTRAL PARK   CLOUDY    73  71  93 MISG      29.80R
$$

NYZ005>009-017-018-044>046-055-056-231200-
CENTRAL


CITY           SKY/WX    TMP DP  RH WIND       PRES   REMARKS
FULTON         CLEAR     60  55  83 SW7       29.82R
SYRACUSE       PTCLDY    60  55  83 W10       29.82R
ROME           CLEAR     58  56  93 CALM      29.82R
ELMIRA         CLEAR     55  33  43 W3        29.87R HAZE
BINGHAMTON     CLOUDY    55  52  89 NW5       29.87S
MONTICELLO     CLOUDY    61  58  90 NW6       29.86R
$$

NYZ026>034-041>043-087-231200-
NORTH


CITY           SKY/WX    TMP DP  RH WIND       PRES   REMARKS
WATERTOWN      PTCLDY    63  55  75 W13       29.79R
FORT DRUM      NOT AVBL
OGDENSBURG     FAIR      59  55  88 SW8       29.75R
MASSENA        PTCLDY    61  56  83 SW14      29.73R
SARANAC LAKE   CLOUDY    56  54  93 SW9       29.76R
PLATTSBURGH    CLEAR     64  54  69 SW8       29.70R
$$

NYZ001>004-010>016-019>021-085-231200-
WEST


CITY           SKY/WX    TMP DP  RH WIND       PRES   REMARKS
NIAGARA FALLS  CLEAR     59  52  77 W7        29.86R
BUFFALO        PTCLDY    60  54  80 W9        29.87R
DUNKIRK        MOCLDY    65  53  65 NW9       29.89R
JAMESTOWN      CLEAR     57  52  82 W8        29.93R
WELLSVILLE       N/A     57  53  86 W5        29.92R
ROCHESTER      PTCLDY    57  55  93 W5        29.85R
PENN YAN       CLEAR     58  53  84 S5        29.87R
$$

             KEY
       WCI = WIND CHILL INDEX
       VSB = VISIBILITY
       HX  = HEAT INDEX
$$




USA.gov is the U.S. government's official web portal to all federal, state and local government web resources and services.